IZ1CYF-3 Weather Reports


Display with metric or nautical units.
time (UTC)temp
F
wind
direction
speed
MPH
gust
MPH
rain 1hr
in
rain 24hr
in
rain mn
in
humidity
%
barometer
mb
20260507070158 54 0.0 0.0 0.00 0.00 0.00 61 1015.6
20260507063158 54 0.0 0.0 0.00 0.00 0.00 62 1015.5
20260507060158 54 0.0 0.0 0.00 0.00 0.00 62 1015.2
20260507053158 54 0.0 0.0 0.00 0.00 0.00 65 1015.0
20260507050158 51 0.0 0.0 0.00 0.00 0.00 66 1015.3
20260507043158 51 0.0 0.0 0.00 0.00 0.00 66 1014.9
20260507040158 53 0.0 0.0 0.00 0.00 0.00 65 1014.5
20260507033158 51 0.0 0.0 0.00 0.00 0.00 66 1014.9
20260507030158 51 0.0 0.0 0.00 0.00 0.00 65 1014.7
20260507023158 50 0.0 0.0 0.00 0.00 0.00 68 1015.1
20260507020158 53 0.0 0.0 0.00 0.00 0.00 65 1014.2
20260507013158 54 0.0 0.0 0.00 0.00 0.00 66 1014.0
20260507010158 54 0.0 0.0 0.00 0.00 0.00 65 1013.7
20260507003158 52 0.0 0.0 0.00 0.00 0.00 68 1014.3
20260507000159 55 0.0 0.0 0.00 0.00 0.00 63 1013.7
20260506233158 56 0.0 0.0 0.00 0.00 0.00 60 1013.5
20260506230159 54 0.0 0.0 0.00 0.00 0.00 63 1013.7
20260506223158 55 0.0 0.0 0.00 0.00 0.00 58 1013.2
20260506220158 56 0.0 0.0 0.00 0.00 0.00 59 1012.9
20260506213158 56 0.0 0.0 0.00 0.00 0.00 60 1012.6
20260506210159 55 0.0 0.0 0.00 0.00 0.00 61 1012.9
20260506203158 53 0.0 0.0 0.00 0.00 0.00 61 1013.2
20260506200158 54 0.0 0.0 0.00 0.00 0.00 57 1012.5
20260506193158 55 0.0 0.0 0.00 0.00 0.00 55 1011.6
20260506190158 56 0.0 0.0 0.00 0.00 0.00 52 1010.8
20260506183158 59 0.0 0.0 0.00 0.00 0.00 46 1009.5
20260506180158 60 0.0 0.0 0.00 0.00 0.00 42 1008.6
20260506173158 63 0.0 0.0 0.00 0.00 0.00 40 1007.7
20260506170159 62 0.0 0.0 0.00 0.00 0.00 40 1007.4